This demonstration page uses our WeatherBlox Daily Observations layout. Learn more.

Left ArrowRight Arrow

Hourly Observations for October 7, 2022

Temp ( °F °C ) Dew Point ( °F °C ) Humidity (%) Winds ( mph kmh ) Pressure ( in mb ) Visibility ( mi km ) Precip ( " mm )
12:59 am 00:59 Clear 61 16.1 56 13.3 83 83 S 5 7 30.04 1017 10 16 0.00 0.00
1:59 am 01:59 Clear 61 16.1 56 13.3 83 83 Calm 30.04 1017 10 16 0.00 0.00
2:59 am 02:59 Clear 61 16.1 55 12.8 81 81 SSW 3 6 30.04 1017 10 16 0.00 0.00
3:59 am 03:59 Mostly Clear 60 15.6 54 12.2 80 80 SSW 3 6 30.04 1017 10 16 0.00 0.00
4:59 am 04:59 Mostly Clear 60 15.6 55 12.8 83 83 S 3 6 30.04 1017 10 16 0.00 0.00
5:59 am 05:59 Mostly Clear 59 15 55 12.8 87 87 SSW 5 7 30.05 1018 10 16 0.00 0.00
6:59 am 06:59 Clear 59 15 54 12.2 83 83 SSW 5 7 30.06 1018 10 16 0.00 0.00
7:59 am 07:59 Sunny 61 16.1 57 13.9 87 87 SW 5 7 30.08 1019 10 16 0.00 0.00
8:59 am 08:59 Sunny 64 17.8 57 13.9 78 78 SW 5 7 30.09 1019 10 16 0.00 0.00
9:59 am 09:59 Sunny 67 19.4 57 13.9 71 71 W 6 9 30.09 1019 10 16 0.00 0.00
10:59 am 10:59 Sunny 73 22.8 57 13.9 57 57 SW 6 9 30.08 1019 10 16 0.00 0.00
11:59 am 11:59 Sunny 73 22.8 55 12.8 53 53 VRB 6 9 30.07 1018 10 16 0.00 0.00
12:59 pm 12:59 Sunny 76 24.4 54 12.2 47 47 W 9 15 30.07 1018 10 16 0.00 0.00
1:59 pm 13:59 Sunny 77 25 53 11.7 43 43 WNW 8 13 30.05 1018 10 16 0.00 0.00
2:59 pm 14:59 Sunny 79 26.1 51 10.6 38 38 WNW 7 11 30.02 1017 10 16 0.00 0.00
3:59 pm 15:59 Sunny 79 26.1 51 10.6 38 38 W 5 7 30.01 1016 10 16 0.00 0.00
4:59 pm 16:59 Mostly Sunny 80 26.7 51 10.6 36 36 Calm 30.01 1016 10 16 0.00 0.00
5:59 pm 17:59 Mostly Sunny 76 24.4 56 13.3 50 50 Calm 30.01 1016 10 16 0.00 0.00
6:59 pm 18:59 Mostly Clear 70 21.1 56 13.3 61 61 Calm 30.03 1017 10 16 0.00 0.00
7:59 pm 19:59 Partly Cloudy 66 18.9 56 13.3 70 70 Calm 30.04 1017 10 16 0.00 0.00
8:59 pm 20:59 Partly Cloudy 67 19.4 56 13.3 68 68 Calm 30.05 1018 10 16 0.00 0.00
9:59 pm 21:59 Partly Cloudy 67 19.4 54 12.2 63 63 SW 6 9 30.06 1018 10 16 0.00 0.00
10:59 pm 22:59 Partly Cloudy 65 18.3 54 12.2 68 68 SW 3 6 30.06 1018 10 16 0.00 0.00
11:59 pm 23:59 Mostly Clear 61 16.1 54 12.2 78 78 Calm 30.06 1018 10 16 0.00 0.00

Powered by AerisWeather